Time,TemperatureF,DewpointF,PressureIn,WindDirection,WindDirectionDegrees,WindSpeedMPH,WindSpeedGustMPH,Humidity,HourlyPrecipIn,Conditions,Clouds,dailyrainin,SoftwareType,DateUTC
2013-08-08 00:04:00,74.7,72.2,30.02,SE,130,0.0,0.0,92,0.00,,,0.00,Wunderground v.1.15,2013-08-08 04:04:00,
2013-08-08 00:09:00,74.7,72.5,30.02,SE,130,0.0,0.0,93,0.00,,,0.00,Wunderground v.1.15,2013-08-08 04:09:00,
2013-08-08 00:14:00,74.6,72.4,30.02,SE,130,0.0,0.0,93,0.00,,,0.00,Wunderground v.1.15,2013-08-08 04:14:00,
2013-08-08 00:19:00,74.5,72.3,30.02,SE,130,0.0,0.0,93,0.00,,,0.00,Wunderground v.1.15,2013-08-08 04:19:00,
2013-08-08 00:24:00,74.3,72.1,30.02,SE,130,0.0,0.0,93,0.00,,,0.00,Wunderground v.1.15,2013-08-08 04:24:00,
2013-08-08 00:34:00,74.2,72.0,30.02,SE,130,0.0,0.0,93,0.00,,,0.00,Wunderground v.1.15,2013-08-08 04:34:00,
2013-08-08 00:44:00,73.9,72.1,30.01,SE,130,0.0,0.0,94,0.00,,,0.00,Wunderground v.1.15,2013-08-08 04:44:00,
2013-08-08 00:49:00,73.7,71.9,30.01,SE,130,0.0,0.0,94,0.00,,,0.00,Wunderground v.1.15,2013-08-08 04:49:00,
2013-08-08 00:54:00,73.6,71.8,30.01,SE,130,0.0,0.0,94,0.00,,,0.00,Wunderground v.1.15,2013-08-08 04:54:00,
2013-08-08 01:04:00,73.8,72.0,30.01,SE,130,0.0,0.0,94,0.00,,,0.00,Wunderground v.1.15,2013-08-08 05:04:00,
2013-08-08 01:09:00,73.8,72.3,30.01,SE,130,0.0,0.0,95,0.00,,,0.00,Wunderground v.1.15,2013-08-08 05:09:00,
2013-08-08 01:19:00,73.5,71.7,30.01,SE,130,0.0,0.0,94,0.00,,,0.00,Wunderground v.1.15,2013-08-08 05:19:00,
2013-08-08 01:29:00,73.6,72.1,30.00,SE,130,0.0,0.0,95,0.00,,,0.00,Wunderground v.1.15,2013-08-08 05:29:00,
2013-08-08 01:39:00,73.5,72.0,30.00,SE,130,0.0,0.0,95,0.00,,,0.00,Wunderground v.1.15,2013-08-08 05:39:00,
2013-08-08 01:44:00,73.4,71.9,30.00,SE,130,0.0,0.0,95,0.00,,,0.00,Wunderground v.1.15,2013-08-08 05:44:00,
2013-08-08 01:54:00,73.4,71.9,30.00,SE,130,0.0,0.0,95,0.00,,,0.00,Wunderground v.1.15,2013-08-08 05:54:00,
2013-08-08 02:04:00,73.1,71.6,30.00,SE,130,0.0,0.0,95,0.00,,,0.00,Wunderground v.1.15,2013-08-08 06:04:00,
2013-08-08 02:09:00,73.2,72.0,30.00,SE,130,0.0,0.0,96,0.00,,,0.00,Wunderground v.1.15,2013-08-08 06:09:00,
2013-08-08 02:14:00,73.2,71.7,30.00,SE,130,0.0,0.0,95,0.00,,,0.00,Wunderground v.1.15,2013-08-08 06:14:00,
2013-08-08 02:24:00,72.9,71.4,29.99,SE,130,0.0,0.0,95,0.00,,,0.00,Wunderground v.1.15,2013-08-08 06:24:00,
2013-08-08 02:34:00,73.0,71.8,29.99,SE,130,0.0,0.0,96,0.00,,,0.00,Wunderground v.1.15,2013-08-08 06:34:00,
2013-08-08 02:44:00,72.9,71.7,29.99,SE,130,0.0,0.0,96,0.00,,,0.00,Wunderground v.1.15,2013-08-08 06:44:00,
2013-08-08 02:54:00,72.7,71.2,29.99,SE,130,0.0,0.0,95,0.00,,,0.00,Wunderground v.1.15,2013-08-08 06:54:00,
2013-08-08 03:04:00,72.6,71.1,29.99,SE,130,0.0,0.0,95,0.00,,,0.00,Wunderground v.1.15,2013-08-08 07:04:00,
2013-08-08 03:14:00,72.3,71.1,29.99,SE,130,0.0,0.0,96,0.00,,,0.00,Wunderground v.1.15,2013-08-08 07:14:00,
2013-08-08 03:24:00,72.0,70.5,29.99,SE,130,0.0,0.0,95,0.00,,,0.00,Wunderground v.1.15,2013-08-08 07:24:00,
2013-08-08 03:34:00,72.1,70.9,29.99,NE,42,1.0,2.0,96,0.00,,,0.00,Wunderground v.1.15,2013-08-08 07:34:00,
2013-08-08 03:44:00,72.0,70.8,29.99,NE,42,2.0,2.0,96,0.00,,,0.00,Wunderground v.1.15,2013-08-08 07:44:00,
2013-08-08 03:54:00,72.0,70.8,30.00,NE,42,1.0,2.0,96,0.00,,,0.00,Wunderground v.1.15,2013-08-08 07:54:00,
2013-08-08 04:04:00,72.0,70.8,29.99,NE,42,0.0,1.0,96,0.00,,,0.00,Wunderground v.1.15,2013-08-08 08:04:00,
2013-08-08 04:14:00,72.0,70.8,30.00,NE,42,0.0,0.0,96,0.00,,,0.00,Wunderground v.1.15,2013-08-08 08:14:00,
2013-08-08 04:19:00,71.9,70.7,29.99,NE,42,0.0,0.0,96,0.00,,,0.00,Wunderground v.1.15,2013-08-08 08:19:00,
2013-08-08 04:29:00,71.8,70.6,29.99,NE,42,0.0,0.0,96,0.00,,,0.00,Wunderground v.1.15,2013-08-08 08:29:00,
2013-08-08 04:39:00,71.8,70.6,29.99,NE,42,0.0,0.0,96,0.00,,,0.00,Wunderground v.1.15,2013-08-08 08:39:00,
2013-08-08 04:49:00,71.9,70.7,29.99,NE,42,0.0,0.0,96,0.00,,,0.00,Wunderground v.1.15,2013-08-08 08:49:00,
2013-08-08 04:59:00,72.0,70.8,29.99,NE,42,0.0,0.0,96,0.00,,,0.00,Wunderground v.1.15,2013-08-08 08:59:00,
2013-08-08 05:09:00,72.1,70.9,29.98,NE,42,0.0,0.0,96,0.00,,,0.00,Wunderground v.1.15,2013-08-08 09:09:00,
2013-08-08 05:19:00,71.9,70.7,29.99,NE,42,0.0,0.0,96,0.00,,,0.00,Wunderground v.1.15,2013-08-08 09:19:00,
2013-08-08 05:29:00,72.0,70.8,29.99,NE,42,0.0,0.0,96,0.00,,,0.00,Wunderground v.1.15,2013-08-08 09:29:00,
2013-08-08 05:39:00,72.0,70.8,29.99,NE,42,0.0,0.0,96,0.00,,,0.00,Wunderground v.1.15,2013-08-08 09:39:00,
2013-08-08 05:49:00,72.0,70.8,29.99,NE,42,0.0,0.0,96,0.00,,,0.00,Wunderground v.1.15,2013-08-08 09:49:00,
2013-08-08 05:59:00,72.2,71.0,29.99,NE,42,0.0,0.0,96,0.00,,,0.00,Wunderground v.1.15,2013-08-08 09:59:00,
2013-08-08 06:09:00,72.2,71.0,29.99,NE,42,0.0,0.0,96,0.00,,,0.00,Wunderground v.1.15,2013-08-08 10:09:00,
2013-08-08 06:19:00,72.0,70.8,29.99,NE,42,0.0,0.0,96,0.00,,,0.00,Wunderground v.1.15,2013-08-08 10:19:00,
2013-08-08 06:29:00,71.9,70.7,30.00,NE,42,0.0,0.0,96,0.00,,,0.00,Wunderground v.1.15,2013-08-08 10:29:00,
2013-08-08 06:39:00,71.9,70.7,29.99,NE,42,0.0,0.0,96,0.00,,,0.00,Wunderground v.1.15,2013-08-08 10:39:00,
2013-08-08 06:49:00,72.2,71.0,30.00,NW,313,0.0,0.0,96,0.00,,,0.00,Wunderground v.1.15,2013-08-08 10:49:00,
2013-08-08 06:59:00,72.3,71.1,30.00,NW,313,0.0,0.0,96,0.00,,,0.00,Wunderground v.1.15,2013-08-08 10:59:00,
2013-08-08 07:09:00,72.6,71.4,30.00,NW,313,0.0,0.0,96,0.00,,,0.00,Wunderground v.1.15,2013-08-08 11:09:00,
2013-08-08 07:19:00,72.6,71.4,30.00,NW,313,0.0,0.0,96,0.00,,,0.00,Wunderground v.1.15,2013-08-08 11:19:00,
2013-08-08 07:29:00,72.8,71.6,30.00,NW,313,0.0,0.0,96,0.00,,,0.00,Wunderground v.1.15,2013-08-08 11:29:00,
2013-08-08 07:39:00,73.0,71.8,30.01,NNE,17,0.0,0.0,96,0.00,,,0.00,Wunderground v.1.15,2013-08-08 11:39:00,
2013-08-08 07:49:00,73.2,72.0,30.01,NNE,17,0.0,0.0,96,0.00,,,0.00,Wunderground v.1.15,2013-08-08 11:49:00,
2013-08-08 07:59:00,73.4,72.2,30.01,NNE,17,0.0,0.0,96,0.00,,,0.00,Wunderground v.1.15,2013-08-08 11:59:00,
2013-08-08 08:09:00,73.9,72.7,30.01,NNE,19,0.0,0.0,96,0.00,,,0.00,Wunderground v.1.15,2013-08-08 12:09:00,
2013-08-08 08:19:00,74.5,73.0,30.01,NNE,19,0.0,0.0,95,0.00,,,0.00,Wunderground v.1.15,2013-08-08 12:19:00,
2013-08-08 08:29:00,75.6,74.1,30.01,NNE,21,0.0,0.0,95,0.00,,,0.00,Wunderground v.1.15,2013-08-08 12:29:00,
2013-08-08 08:39:00,77.1,75.2,30.01,NNE,21,0.0,0.0,94,0.00,,,0.00,Wunderground v.1.15,2013-08-08 12:39:00,
2013-08-08 08:44:00,77.6,75.1,30.01,NNE,21,0.0,0.0,92,0.00,,,0.00,Wunderground v.1.15,2013-08-08 12:44:00,
2013-08-08 08:54:00,77.9,75.1,30.02,NNE,21,0.0,0.0,91,0.00,,,0.00,Wunderground v.1.15,2013-08-08 12:54:00,
2013-08-08 09:04:00,79.0,75.8,30.02,NNE,22,0.0,1.0,90,0.00,,,0.00,Wunderground v.1.15,2013-08-08 13:04:00,
2013-08-08 09:14:00,79.9,76.0,30.02,NNE,33,0.0,0.0,88,0.00,,,0.00,Wunderground v.1.15,2013-08-08 13:14:00,
2013-08-08 09:24:00,80.3,75.7,30.03,NE,44,1.0,1.0,86,0.00,,,0.00,Wunderground v.1.15,2013-08-08 13:24:00,
2013-08-08 09:34:00,80.0,75.4,30.03,NE,44,1.0,1.0,86,0.00,,,0.00,Wunderground v.1.15,2013-08-08 13:34:00,
2013-08-08 09:39:00,80.4,76.2,30.03,NE,49,1.0,3.0,87,0.00,,,0.00,Wunderground v.1.15,2013-08-08 13:39:00,
2013-08-08 09:49:00,81.3,76.0,30.03,ESE,117,1.0,3.0,84,0.00,,,0.00,Wunderground v.1.15,2013-08-08 13:49:00,
2013-08-08 09:59:00,81.6,75.9,30.03,ESE,109,2.0,2.0,83,0.00,,,0.00,Wunderground v.1.15,2013-08-08 13:59:00,
2013-08-08 10:09:00,81.8,74.6,30.03,East,101,2.0,3.0,79,0.00,,,0.00,Wunderground v.1.15,2013-08-08 14:09:00,
2013-08-08 10:19:00,81.4,75.0,30.02,East,88,2.0,2.0,81,0.00,,,0.00,Wunderground v.1.15,2013-08-08 14:19:00,
2013-08-08 10:24:00,81.4,75.0,30.03,East,100,1.0,2.0,81,0.00,,,0.00,Wunderground v.1.15,2013-08-08 14:24:00,
2013-08-08 10:34:00,82.6,75.4,30.02,ESE,119,1.0,1.0,79,0.00,,,0.00,Wunderground v.1.15,2013-08-08 14:34:00,
2013-08-08 10:44:00,83.1,75.5,30.02,SSE,149,0.0,1.0,78,0.00,,,0.00,Wunderground v.1.15,2013-08-08 14:44:00,
2013-08-08 10:54:00,83.4,75.0,30.02,ESE,119,3.0,7.0,76,0.00,,,0.00,Wunderground v.1.15,2013-08-08 14:54:00,
2013-08-08 10:59:00,82.8,75.2,30.02,ESE,108,4.0,4.0,78,0.00,,,0.00,Wunderground v.1.15,2013-08-08 14:59:00,
2013-08-08 11:09:00,82.1,74.2,30.03,SSE,160,3.0,6.0,77,0.00,,,0.00,Wunderground v.1.15,2013-08-08 15:09:00,
2013-08-08 11:14:00,80.3,72.8,30.03,SSE,160,6.0,6.0,78,0.00,,,0.00,Wunderground v.1.15,2013-08-08 15:14:00,
2013-08-08 11:24:00,78.2,72.6,30.03,SSE,151,6.0,7.0,83,0.00,,,0.00,Wunderground v.1.15,2013-08-08 15:24:00,
2013-08-08 11:34:00,76.4,72.6,30.03,SSE,148,6.0,7.0,88,0.00,,,0.00,Wunderground v.1.15,2013-08-08 15:34:00,
2013-08-08 11:39:00,76.6,72.8,30.03,SE,140,5.0,5.0,88,0.00,,,0.00,Wunderground v.1.15,2013-08-08 15:39:00,
2013-08-08 11:49:00,77.4,73.2,30.03,SSE,155,2.0,5.0,87,0.00,,,0.00,Wunderground v.1.15,2013-08-08 15:49:00,
2013-08-08 11:59:00,78.3,73.8,30.03,South,186,1.0,1.0,86,0.00,,,0.00,Wunderground v.1.15,2013-08-08 15:59:00,
2013-08-08 12:09:00,77.4,72.5,30.03,South,185,3.0,3.0,85,0.00,,,0.00,Wunderground v.1.15,2013-08-08 16:09:00,
2013-08-08 12:19:00,77.5,72.6,30.03,SSW,213,2.0,2.0,85,0.00,,,0.00,Wunderground v.1.15,2013-08-08 16:19:00,
2013-08-08 12:29:00,77.7,72.1,30.03,South,181,4.0,6.0,83,0.00,,,0.00,Wunderground v.1.15,2013-08-08 16:29:00,
2013-08-08 12:34:00,77.8,72.2,30.03,SSW,197,6.0,9.0,83,0.00,,,0.00,Wunderground v.1.15,2013-08-08 16:34:00,
2013-08-08 12:44:00,77.5,72.3,30.03,South,187,7.0,7.0,84,0.00,,,0.00,Wunderground v.1.15,2013-08-08 16:44:00,
2013-08-08 12:54:00,77.8,72.9,30.03,South,182,5.0,6.0,85,0.00,,,0.00,Wunderground v.1.15,2013-08-08 16:54:00,
2013-08-08 13:04:00,78.1,72.5,30.03,South,186,4.0,5.0,83,0.00,,,0.00,Wunderground v.1.15,2013-08-08 17:04:00,
2013-08-08 13:14:00,79.2,73.2,30.02,SSW,192,3.0,4.0,82,0.00,,,0.00,Wunderground v.1.15,2013-08-08 17:14:00,
2013-08-08 13:24:00,79.9,73.5,30.02,South,180,1.0,2.0,81,0.00,,,0.00,Wunderground v.1.15,2013-08-08 17:24:00,
2013-08-08 13:34:00,81.7,73.0,30.02,South,180,1.0,1.0,75,0.00,,,0.00,Wunderground v.1.15,2013-08-08 17:34:00,
2013-08-08 13:44:00,83.2,74.4,30.02,SSE,156,2.0,5.0,75,0.00,,,0.00,Wunderground v.1.15,2013-08-08 17:44:00,
2013-08-08 13:54:00,83.5,74.7,30.02,SSE,166,3.0,3.0,75,0.00,,,0.00,Wunderground v.1.15,2013-08-08 17:54:00,
2013-08-08 14:04:00,84.4,75.6,30.02,SSE,151,4.0,4.0,75,0.00,,,0.00,Wunderground v.1.15,2013-08-08 18:04:00,
2013-08-08 14:14:00,85.0,77.0,30.01,SE,137,3.0,4.0,77,0.00,,,0.00,Wunderground v.1.15,2013-08-08 18:14:00,
2013-08-08 14:19:00,85.7,74.4,30.01,SE,140,3.0,6.0,69,0.00,,,0.00,Wunderground v.1.15,2013-08-08 18:19:00,
2013-08-08 14:29:00,86.0,75.1,30.01,SSE,164,5.0,11.0,70,0.00,,,0.00,Wunderground v.1.15,2013-08-08 18:29:00,
2013-08-08 14:39:00,85.7,74.8,30.01,South,185,4.0,4.0,70,0.00,,,0.00,Wunderground v.1.15,2013-08-08 18:39:00,
2013-08-08 14:49:00,86.5,74.7,30.01,SSW,194,4.0,7.0,68,0.00,,,0.00,Wunderground v.1.15,2013-08-08 18:49:00,
2013-08-08 14:54:00,86.5,74.2,30.00,South,190,5.0,7.0,67,0.00,,,0.00,Wunderground v.1.15,2013-08-08 18:54:00,
2013-08-08 15:04:00,86.9,74.6,30.00,SSE,164,5.0,7.0,67,0.00,,,0.00,Wunderground v.1.15,2013-08-08 19:04:00,
2013-08-08 15:14:00,87.4,74.6,29.99,SSW,206,6.0,9.0,66,0.00,,,0.00,Wunderground v.1.15,2013-08-08 19:14:00,
2013-08-08 15:24:00,87.2,75.3,29.99,South,186,6.0,6.0,68,0.00,,,0.00,Wunderground v.1.15,2013-08-08 19:24:00,
2013-08-08 15:29:00,87.0,75.2,29.99,SSW,205,5.0,5.0,68,0.00,,,0.00,Wunderground v.1.15,2013-08-08 19:29:00,
2013-08-08 15:39:00,86.6,75.2,29.99,SW,215,5.0,5.0,69,0.00,,,0.00,Wunderground v.1.15,2013-08-08 19:39:00,
2013-08-08 15:49:00,86.9,74.6,29.99,SW,234,5.0,5.0,67,0.00,,,0.00,Wunderground v.1.15,2013-08-08 19:49:00,
2013-08-08 15:59:00,86.5,76.0,29.99,South,175,5.0,7.0,71,0.00,,,0.00,Wunderground v.1.15,2013-08-08 19:59:00,
2013-08-08 16:04:00,85.6,75.5,29.99,South,183,6.0,7.0,72,0.00,,,0.00,Wunderground v.1.15,2013-08-08 20:04:00,
2013-08-08 16:14:00,85.7,75.2,29.99,SSE,165,5.0,7.0,71,0.00,,,0.00,Wunderground v.1.15,2013-08-08 20:14:00,
2013-08-08 16:19:00,86.3,75.8,30.00,SSW,211,5.0,9.0,71,0.00,,,0.00,Wunderground v.1.15,2013-08-08 20:19:00,
2013-08-08 16:29:00,86.5,76.4,29.99,South,180,6.0,6.0,72,0.00,,,0.00,Wunderground v.1.15,2013-08-08 20:29:00,
2013-08-08 16:39:00,85.7,76.0,29.99,South,188,6.0,6.0,73,0.00,,,0.00,Wunderground v.1.15,2013-08-08 20:39:00,
2013-08-08 16:49:00,86.0,75.1,29.99,South,189,5.0,5.0,70,0.00,,,0.00,Wunderground v.1.15,2013-08-08 20:49:00,
2013-08-08 16:59:00,86.2,76.9,29.99,SSE,150,5.0,5.0,74,0.00,,,0.00,Wunderground v.1.15,2013-08-08 20:59:00,
2013-08-08 17:09:00,86.1,76.4,29.99,SSE,153,6.0,8.0,73,0.00,,,0.00,Wunderground v.1.15,2013-08-08 21:09:00,
2013-08-08 17:29:00,85.6,76.8,29.99,SSE,152,7.0,7.0,75,0.00,,,0.00,Wunderground v.1.15,2013-08-08 21:29:00,
2013-08-08 17:44:00,85.6,76.8,29.99,South,173,6.0,8.0,75,0.00,,,0.00,Wunderground v.1.15,2013-08-08 21:44:00,
2013-08-08 17:49:00,85.4,76.2,29.99,SSW,198,5.0,5.0,74,0.00,,,0.00,Wunderground v.1.15,2013-08-08 21:49:00,
2013-08-08 17:59:00,85.4,76.2,29.99,SSW,202,6.0,7.0,74,0.00,,,0.00,Wunderground v.1.15,2013-08-08 21:59:00,
2013-08-08 18:04:00,85.2,76.0,29.99,South,184,7.0,7.0,74,0.00,,,0.00,Wunderground v.1.15,2013-08-08 22:04:00,
2013-08-08 18:14:00,85.7,76.5,29.98,South,185,5.0,7.0,74,0.00,,,0.00,Wunderground v.1.15,2013-08-08 22:14:00,
2013-08-08 18:24:00,85.6,76.4,29.97,SSE,159,6.0,6.0,74,0.00,,,0.00,Wunderground v.1.15,2013-08-08 22:24:00,
2013-08-08 18:29:00,85.7,76.5,29.98,South,179,5.0,5.0,74,0.00,,,0.00,Wunderground v.1.15,2013-08-08 22:29:00,
2013-08-08 18:39:00,85.3,76.9,29.98,South,180,5.0,5.0,76,0.00,,,0.00,Wunderground v.1.15,2013-08-08 22:39:00,
2013-08-08 18:49:00,84.7,76.7,29.98,South,189,5.0,5.0,77,0.00,,,0.00,Wunderground v.1.15,2013-08-08 22:49:00,
2013-08-08 18:59:00,84.3,76.3,29.98,SSE,153,5.0,10.0,77,0.00,,,0.00,Wunderground v.1.15,2013-08-08 22:59:00,
2013-08-08 19:09:00,83.6,76.4,29.98,SSE,167,5.0,6.0,79,0.00,,,0.00,Wunderground v.1.15,2013-08-08 23:09:00,
2013-08-08 19:14:00,83.4,76.6,29.98,SSW,198,4.0,6.0,80,0.00,,,0.00,Wunderground v.1.15,2013-08-08 23:14:00,
2013-08-08 19:24:00,82.8,76.4,29.99,South,187,4.0,7.0,81,0.00,,,0.00,Wunderground v.1.15,2013-08-08 23:24:00,
2013-08-08 19:34:00,82.4,76.7,29.98,South,186,4.0,4.0,83,0.00,,,0.00,Wunderground v.1.15,2013-08-08 23:34:00,
2013-08-08 19:44:00,82.2,76.5,29.99,South,180,3.0,4.0,83,0.00,,,0.00,Wunderground v.1.15,2013-08-08 23:44:00,
2013-08-08 20:04:00,81.8,76.8,29.99,South,186,2.0,3.0,85,0.00,,,0.00,Wunderground v.1.15,2013-08-09 00:04:00,
2013-08-08 20:14:00,81.6,76.6,29.99,SSW,200,1.0,1.0,85,0.00,,,0.00,Wunderground v.1.15,2013-08-09 00:14:00,
2013-08-08 20:24:00,81.3,76.7,29.99,SSW,213,2.0,2.0,86,0.00,,,0.00,Wunderground v.1.15,2013-08-09 00:24:00,
2013-08-08 20:34:00,81.2,76.6,30.00,SSW,199,1.0,2.0,86,0.00,,,0.00,Wunderground v.1.15,2013-08-09 00:34:00,
2013-08-08 20:44:00,81.1,76.5,30.00,SSW,192,0.0,1.0,86,0.00,,,0.00,Wunderground v.1.15,2013-08-09 00:44:00,
2013-08-08 20:54:00,81.0,76.4,30.00,SSW,192,1.0,2.0,86,0.00,,,0.00,Wunderground v.1.15,2013-08-09 00:54:00,
2013-08-08 21:04:00,80.8,76.6,30.01,South,190,0.0,1.0,87,0.00,,,0.00,Wunderground v.1.15,2013-08-09 01:04:00,
2013-08-08 21:14:00,80.6,76.4,30.01,South,176,0.0,0.0,87,0.00,,,0.00,Wunderground v.1.15,2013-08-09 01:14:00,
2013-08-08 21:24:00,80.5,76.3,30.01,South,174,0.0,0.0,87,0.00,,,0.00,Wunderground v.1.15,2013-08-09 01:24:00,
2013-08-08 21:34:00,80.3,76.4,30.01,SSE,168,1.0,2.0,88,0.00,,,0.00,Wunderground v.1.15,2013-08-09 01:34:00,
2013-08-08 21:39:00,80.1,76.2,30.01,South,171,1.0,2.0,88,0.00,,,0.00,Wunderground v.1.15,2013-08-09 01:39:00,
2013-08-08 21:49:00,80.1,76.6,30.01,South,175,1.0,1.0,89,0.00,,,0.00,Wunderground v.1.15,2013-08-09 01:49:00,
2013-08-08 21:59:00,80.0,76.5,30.02,SSW,205,1.0,1.0,89,0.00,,,0.00,Wunderground v.1.15,2013-08-09 01:59:00,
2013-08-08 22:14:00,79.8,76.3,30.02,SSW,203,1.0,5.0,89,0.00,,,0.00,Wunderground v.1.15,2013-08-09 02:14:00,
2013-08-08 22:24:00,79.9,76.4,30.02,SSW,199,2.0,2.0,89,0.00,,,0.00,Wunderground v.1.15,2013-08-09 02:24:00,
2013-08-08 22:34:00,79.9,76.4,30.02,SW,217,3.0,3.0,89,0.00,,,0.00,Wunderground v.1.15,2013-08-09 02:34:00,
2013-08-08 22:44:00,79.8,76.3,30.03,SW,219,3.0,4.0,89,0.00,,,0.00,Wunderground v.1.15,2013-08-09 02:44:00,
2013-08-08 22:54:00,79.6,76.4,30.03,SW,214,2.0,4.0,90,0.00,,,0.00,Wunderground v.1.15,2013-08-09 02:54:00,
2013-08-08 23:04:00,79.6,76.1,30.03,SSW,196,2.0,3.0,89,0.00,,,0.00,Wunderground v.1.15,2013-08-09 03:04:00,
2013-08-08 23:14:00,79.5,76.0,30.03,SSW,200,2.0,3.0,89,0.00,,,0.00,Wunderground v.1.15,2013-08-09 03:14:00,
2013-08-08 23:34:00,79.3,75.8,30.03,SW,222,4.0,4.0,89,0.00,,,0.00,Wunderground v.1.15,2013-08-09 03:34:00,
2013-08-08 23:44:00,79.2,75.7,30.03,SSW,213,4.0,7.0,89,0.00,,,0.00,Wunderground v.1.15,2013-08-09 03:44:00,
2013-08-08 23:49:00,79.2,75.7,30.03,SW,217,4.0,5.0,89,0.00,,,0.00,Wunderground v.1.15,2013-08-09 03:49:00,
2013-08-08 23:59:00,79.0,75.5,30.03,SSW,207,3.0,4.0,89,0.00,,,0.00,Wunderground v.1.15,2013-08-09 03:59:00,